Location: Newark
(45.2500°N, 7.5833°E)
Time: 02:36:05
(UTC+00:00)

A-11 Canister half - Pass Details

Date: 26 January 2020
Orbit: 1524 x 1684 km, 47.3° (Epoch: 26 February)

Event Time Altitude Azimuth Distance (km) Brightness Sun altitude
Rises 13:51:52 0° 167° (SSE) 4,659 12.2 19.5°
Reaches altitude 10° 13:58:22 10° 134° (SE) 3,687 11.2 18.9°
Maximum altitude 14:00:24 11° 121° (ESE) 3,624 11.0 18.7°
Drops below altitude 10° 14:02:26 10° 108° (ESE) 3,701 10.9 18.5°
Sets 14:08:57 0° 76° (ENE) 4,718 11.1 17.8°
